| time (UTC) | temp F | wind direction | speed MPH | gust MPH | rain 1hr in | rain 24hr in | rain mn in | humidity % | barometer mb |
| 20260504174614 | 90 | 0.0 | 0.0 | 0.00 | 0.00 | 0.00 | 3 | 954.3 | |
| 20260504174430 | 91 | 0.0 | 0.0 | 0.00 | 0.00 | 0.00 | 3 | 954.3 | |
| 20260504174247 | 91 | 0.0 | 0.0 | 0.00 | 0.00 | 0.00 | 3 | 954.3 | |
| 20260504174103 | 91 | 0.0 | 0.0 | 0.00 | 0.00 | 0.00 | 3 | 954.3 | |
| 20260504173919 | 91 | 0.0 | 0.0 | 0.00 | 0.00 | 0.00 | 3 | 954.3 | |
| 20260504173735 | 90 | 0.0 | 0.0 | 0.00 | 0.00 | 0.00 | 3 | 954.4 | |
| 20260504173552 | 90 | 0.0 | 0.0 | 0.00 | 0.00 | 0.00 | 3 | 954.4 | |
| 20260504173408 | 90 | 0.0 | 0.0 | 0.00 | 0.00 | 0.00 | 3 | 954.3 | |
| 20260504173224 | 91 | 0.0 | 0.0 | 0.00 | 0.00 | 0.00 | 3 | 954.4 | |
| 20260504173041 | 91 | 0.0 | 0.0 | 0.00 | 0.00 | 0.00 | 3 | 954.4 | |
| 20260504172857 | 91 | 0.0 | 0.0 | 0.00 | 0.00 | 0.00 | 3 | 954.4 | |
| 20260504172713 | 90 | 0.0 | 0.0 | 0.00 | 0.00 | 0.00 | 3 | 954.4 | |
| 20260504172530 | 90 | 0.0 | 0.0 | 0.00 | 0.00 | 0.00 | 3 | 954.5 | |
| 20260504172346 | 90 | 0.0 | 0.0 | 0.00 | 0.00 | 0.00 | 3 | 954.6 | |
| 20260504172202 | 90 | 0.0 | 0.0 | 0.00 | 0.00 | 0.00 | 3 | 954.6 | |
| 20260504172019 | 90 | 0.0 | 0.0 | 0.00 | 0.00 | 0.00 | 3 | 954.6 | |
| 20260504171835 | 90 | 0.0 | 0.0 | 0.00 | 0.00 | 0.00 | 3 | 954.7 | |
| 20260504171651 | 91 | 0.0 | 0.0 | 0.00 | 0.00 | 0.00 | 3 | 954.6 | |
| 20260504171508 | 90 | 0.0 | 0.0 | 0.00 | 0.00 | 0.00 | 3 | 954.7 | |
| 20260504171324 | 91 | 0.0 | 0.0 | 0.00 | 0.00 | 0.00 | 3 | 954.8 | |
| 20260504171140 | 91 | 0.0 | 0.0 | 0.00 | 0.00 | 0.00 | 3 | 954.8 | |
| 20260504170957 | 91 | 0.0 | 0.0 | 0.00 | 0.00 | 0.00 | 3 | 954.8 | |
| 20260504170813 | 91 | 0.0 | 0.0 | 0.00 | 0.00 | 0.00 | 3 | 954.8 | |
| 20260504170629 | 90 | 0.0 | 0.0 | 0.00 | 0.00 | 0.00 | 3 | 954.8 | |
| 20260504170446 | 90 | 0.0 | 0.0 | 0.00 | 0.00 | 0.00 | 3 | 954.8 | |
| 20260504170301 | 89 | 0.0 | 0.0 | 0.00 | 0.00 | 0.00 | 3 | 954.8 | |
| 20260504170118 | 89 | 0.0 | 0.0 | 0.00 | 0.00 | 0.00 | 3 | 954.9 | |
| 20260504160417 | 87 | 0.0 | 0.0 | 0.00 | 0.00 | 0.00 | 4 | 955.6 | |
| 20260504160233 | 87 | 0.0 | 0.0 | 0.00 | 0.00 | 0.00 | 4 | 955.6 | |
| 20260504151042 | 86 | 0.0 | 0.0 | 0.00 | 0.00 | 0.00 | 4 | 956.3 | |
| 20260504150858 | 85 | 0.0 | 0.0 | 0.00 | 0.00 | 0.00 | 4 | 956.3 | |
| 20260504150714 | 85 | 0.0 | 0.0 | 0.00 | 0.00 | 0.00 | 4 | 956.3 | |
| 20260504150530 | 85 | 0.0 | 0.0 | 0.00 | 0.00 | 0.00 | 4 | 956.1 | |
| 20260504150347 | 85 | 0.0 | 0.0 | 0.00 | 0.00 | 0.00 | 4 | 956.4 | |
| 20260504150203 | 84 | 0.0 | 0.0 | 0.00 | 0.00 | 0.00 | 4 | 956.4 | |
| 20260504141154 | 83 | 0.0 | 0.0 | 0.00 | 0.00 | 0.00 | 5 | 957.2 | |
| 20260504141010 | 82 | 0.0 | 0.0 | 0.00 | 0.00 | 0.00 | 5 | 957.1 | |
| 20260504140827 | 82 | 0.0 | 0.0 | 0.00 | 0.00 | 0.00 | 5 | 957.2 | |
| 20260504140643 | 82 | 0.0 | 0.0 | 0.00 | 0.00 | 0.00 | 5 | 957.2 | |
| 20260504140459 | 82 | 0.0 | 0.0 | 0.00 | 0.00 | 0.00 | 5 | 957.2 | |
| 20260504140316 | 82 | 0.0 | 0.0 | 0.00 | 0.00 | 0.00 | 5 | 957.2 | |
| 20260504140132 | 82 | 0.0 | 0.0 | 0.00 | 0.00 | 0.00 | 5 | 957.3 | |
| 20260504130757 | 78 | 0.0 | 0.0 | 0.00 | 0.00 | 0.00 | 6 | 957.6 | |
| 20260504130613 | 79 | 0.0 | 0.0 | 0.00 | 0.00 | 0.00 | 6 | 957.5 | |
| 20260504130429 | 78 | 0.0 | 0.0 | 0.00 | 0.00 | 0.00 | 6 | 957.6 | |
| 20260504130246 | 78 | 0.0 | 0.0 | 0.00 | 0.00 | 0.00 | 6 | 957.6 | |
| 20260504120216 | 74 | 0.0 | 0.0 | 0.00 | 0.00 | 0.00 | 7 | 957.4 | |
| 20260504110656 | 71 | 0.0 | 0.0 | 0.00 | 0.00 | 0.00 | 7 | 957.0 | |
| 20260504110513 | 71 | 0.0 | 0.0 | 0.00 | 0.00 | 0.00 | 7 | 957.0 | |
| 20260504110329 | 70 | 0.0 | 0.0 | 0.00 | 0.00 | 0.00 | 7 | 956.9 | |
| 20260504110145 | 71 | 0.0 | 0.0 | 0.00 | 0.00 | 0.00 | 7 | 956.9 | |
| 20260504100437 | 70 | 0.0 | 0.0 | 0.00 | 0.00 | 0.00 | 7 | 956.5 | |
| 20260504100253 | 70 | 0.0 | 0.0 | 0.00 | 0.00 | 0.00 | 7 | 956.5 | |
| 20260504100110 | 70 | 0.0 | 0.0 | 0.00 | 0.00 | 0.00 | 7 | 956.5 | |
| 20260504081908 | 70 | 0.0 | 0.0 | 0.00 | 0.00 | 0.00 | 7 | 955.9 | |
| 20260504081725 | 70 | 0.0 | 0.0 | 0.00 | 0.00 | 0.00 | 7 | 955.8 | |
| 20260504081541 | 71 | 0.0 | 0.0 | 0.00 | 0.00 | 0.00 | 7 | 955.9 | |
| 20260504081357 | 72 | 0.0 | 0.0 | 0.00 | 0.00 | 0.00 | 7 | 955.8 | |
| 20260504081213 | 71 | 0.0 | 0.0 | 0.00 | 0.00 | 0.00 | 7 | 955.9 | |
| 20260504081030 | 71 | 0.0 | 0.0 | 0.00 | 0.00 | 0.00 | 7 | 955.9 | |
| 20260504080846 | 71 | 0.0 | 0.0 | 0.00 | 0.00 | 0.00 | 7 | 955.9 | |
| 20260504080702 | 71 | 0.0 | 0.0 | 0.00 | 0.00 | 0.00 | 7 | 955.9 | |
| 20260504080518 | 71 | 0.0 | 0.0 | 0.00 | 0.00 | 0.00 | 7 | 955.9 | |
| 20260504080335 | 70 | 0.0 | 0.0 | 0.00 | 0.00 | 0.00 | 7 | 956.0 | |
| 20260504080152 | 72 | 0.0 | 0.0 | 0.00 | 0.00 | 0.00 | 7 | 955.8 | |
| 20260504070259 | 70 | 0.0 | 0.0 | 0.00 | 0.00 | 0.00 | 7 | 955.4 | |
| 20260504070116 | 71 | 0.0 | 0.0 | 0.00 | 0.00 | 0.00 | 7 | 955.4 | |
| 20260504060227 | 73 | 0.0 | 0.0 | 0.00 | 0.00 | 0.00 | 6 | 955.3 | |
| 20260504050708 | 74 | 0.0 | 0.0 | 0.00 | 0.00 | 0.00 | 6 | 955.2 | |
| 20260504050524 | 73 | 0.0 | 0.0 | 0.00 | 0.00 | 0.00 | 6 | 955.2 | |
| 20260504050340 | 74 | 0.0 | 0.0 | 0.00 | 0.00 | 0.00 | 6 | 955.2 | |
| 20260504050156 | 74 | 0.0 | 0.0 | 0.00 | 0.00 | 0.00 | 6 | 955.2 | |
| 20260504050013 | 74 | 0.0 | 0.0 | 0.00 | 0.00 | 0.00 | 6 | 955.2 | |
| 20260504045829 | 73 | 0.0 | 0.0 | 0.00 | 0.00 | 0.00 | 6 | 955.2 | |
| 20260504045645 | 73 | 0.0 | 0.0 | 0.00 | 0.00 | 0.00 | 6 | 955.3 | |
| 20260504045502 | 74 | 0.0 | 0.0 | 0.00 | 0.00 | 0.00 | 6 | 955.3 | |
| 20260504045318 | 74 | 0.0 | 0.0 | 0.00 | 0.00 | 0.00 | 6 | 955.3 | |
| 20260504045134 | 74 | 0.0 | 0.0 | 0.00 | 0.00 | 0.00 | 6 | 955.2 | |
| 20260504044950 | 74 | 0.0 | 0.0 | 0.00 | 0.00 | 0.00 | 6 | 955.3 | |
| 20260504044806 | 73 | 0.0 | 0.0 | 0.00 | 0.00 | 0.00 | 6 | 955.3 | |
| 20260504044622 | 73 | 0.0 | 0.0 | 0.00 | 0.00 | 0.00 | 6 | 955.3 | |
| 20260504044439 | 73 | 0.0 | 0.0 | 0.00 | 0.00 | 0.00 | 6 | 955.3 | |
| 20260504044255 | 73 | 0.0 | 0.0 | 0.00 | 0.00 | 0.00 | 6 | 955.4 | |
| 20260504044111 | 74 | 0.0 | 0.0 | 0.00 | 0.00 | 0.00 | 6 | 955.3 | |
| 20260504043927 | 73 | 0.0 | 0.0 | 0.00 | 0.00 | 0.00 | 6 | 955.3 | |
| 20260504043743 | 74 | 0.0 | 0.0 | 0.00 | 0.00 | 0.00 | 6 | 955.4 | |
| 20260504043559 | 74 | 0.0 | 0.0 | 0.00 | 0.00 | 0.00 | 6 | 955.3 | |
| 20260504043415 | 74 | 0.0 | 0.0 | 0.00 | 0.00 | 0.00 | 6 | 955.3 | |
| 20260504043232 | 74 | 0.0 | 0.0 | 0.00 | 0.00 | 0.00 | 6 | 955.3 | |
| 20260504043048 | 74 | 0.0 | 0.0 | 0.00 | 0.00 | 0.00 | 6 | 955.3 | |
| 20260504042904 | 75 | 0.0 | 0.0 | 0.00 | 0.00 | 0.00 | 6 | 955.4 | |
| 20260504042721 | 75 | 0.0 | 0.0 | 0.00 | 0.00 | 0.00 | 6 | 955.4 | |
| 20260504042537 | 75 | 0.0 | 0.0 | 0.00 | 0.00 | 0.00 | 6 | 955.4 | |
| 20260504042353 | 74 | 0.0 | 0.0 | 0.00 | 0.00 | 0.00 | 6 | 955.4 | |
| 20260504042209 | 74 | 0.0 | 0.0 | 0.00 | 0.00 | 0.00 | 6 | 955.5 | |
| 20260504042025 | 74 | 0.0 | 0.0 | 0.00 | 0.00 | 0.00 | 6 | 955.4 | |
| 20260504041842 | 75 | 0.0 | 0.0 | 0.00 | 0.00 | 0.00 | 6 | 955.5 | |
| 20260504041658 | 75 | 0.0 | 0.0 | 0.00 | 0.00 | 0.00 | 6 | 955.5 | |
| 20260504041514 | 75 | 0.0 | 0.0 | 0.00 | 0.00 | 0.00 | 6 | 955.6 | |
| 20260504041331 | 74 | 0.0 | 0.0 | 0.00 | 0.00 | 0.00 | 6 | 955.5 | |
| 20260504041147 | 74 | 0.0 | 0.0 | 0.00 | 0.00 | 0.00 | 6 | 955.5 | |
| 20260504041003 | 75 | 0.0 | 0.0 | 0.00 | 0.00 | 0.00 | 6 | 955.5 | |
| 20260504040819 | 75 | 0.0 | 0.0 | 0.00 | 0.00 | 0.00 | 6 | 955.5 | |
| 20260504040636 | 74 | 0.0 | 0.0 | 0.00 | 0.00 | 0.00 | 6 | 955.5 | |
| 20260504040452 | 74 | 0.0 | 0.0 | 0.00 | 0.00 | 0.00 | 6 | 955.5 | |
| 20260504040308 | 74 | 0.0 | 0.0 | 0.00 | 0.00 | 0.00 | 6 | 955.5 | |
| 20260504040124 | 73 | 0.0 | 0.0 | 0.00 | 0.00 | 0.00 | 6 | 955.5 | |
| 20260504035940 | 74 | 0.0 | 0.0 | 0.00 | 0.00 | 0.00 | 6 | 955.5 | |
| 20260504035757 | 74 | 0.0 | 0.0 | 0.00 | 0.00 | 0.00 | 6 | 955.6 | |
| 20260504035613 | 74 | 0.0 | 0.0 | 0.00 | 0.00 | 0.00 | 6 | 955.5 | |
| 20260504035429 | 74 | 0.0 | 0.0 | 0.00 | 0.00 | 0.00 | 6 | 955.6 | |
| 20260504035245 | 74 | 0.0 | 0.0 | 0.00 | 0.00 | 0.00 | 6 | 955.6 | |
| 20260504035102 | 74 | 0.0 | 0.0 | 0.00 | 0.00 | 0.00 | 6 | 955.6 | |
| 20260504034918 | 74 | 0.0 | 0.0 | 0.00 | 0.00 | 0.00 | 6 | 955.6 | |
| 20260504034734 | 74 | 0.0 | 0.0 | 0.00 | 0.00 | 0.00 | 6 | 955.6 | |
| 20260504034551 | 74 | 0.0 | 0.0 | 0.00 | 0.00 | 0.00 | 6 | 955.6 | |
| 20260504034407 | 73 | 0.0 | 0.0 | 0.00 | 0.00 | 0.00 | 6 | 955.7 | |
| 20260504034223 | 74 | 0.0 | 0.0 | 0.00 | 0.00 | 0.00 | 6 | 955.7 | |
| 20260504034039 | 74 | 0.0 | 0.0 | 0.00 | 0.00 | 0.00 | 6 | 955.7 | |
| 20260504033855 | 74 | 0.0 | 0.0 | 0.00 | 0.00 | 0.00 | 6 | 955.7 | |
| 20260504033711 | 75 | 0.0 | 0.0 | 0.00 | 0.00 | 0.00 | 6 | 955.6 | |
| 20260504033528 | 74 | 0.0 | 0.0 | 0.00 | 0.00 | 0.00 | 6 | 955.7 | |
| 20260504033344 | 74 | 0.0 | 0.0 | 0.00 | 0.00 | 0.00 | 6 | 955.6 | |
| 20260504033200 | 74 | 0.0 | 0.0 | 0.00 | 0.00 | 0.00 | 6 | 955.6 | |
| 20260504033017 | 74 | 0.0 | 0.0 | 0.00 | 0.00 | 0.00 | 6 | 955.6 | |
| 20260504032833 | 74 | 0.0 | 0.0 | 0.00 | 0.00 | 0.00 | 6 | 955.6 | |
| 20260504032649 | 74 | 0.0 | 0.0 | 0.00 | 0.00 | 0.00 | 6 | 955.7 | |
| 20260504032506 | 74 | 0.0 | 0.0 | 0.00 | 0.00 | 0.00 | 6 | 955.7 | |
| 20260504032322 | 74 | 0.0 | 0.0 | 0.00 | 0.00 | 0.00 | 6 | 955.7 | |
| 20260504032138 | 74 | 0.0 | 0.0 | 0.00 | 0.00 | 0.00 | 6 | 955.8 | |
| 20260504031954 | 74 | 0.0 | 0.0 | 0.00 | 0.00 | 0.00 | 6 | 955.7 | |
| 20260504031811 | 74 | 0.0 | 0.0 | 0.00 | 0.00 | 0.00 | 6 | 955.7 | |
| 20260504031627 | 74 | 0.0 | 0.0 | 0.00 | 0.00 | 0.00 | 6 | 955.8 | |
| 20260504031443 | 75 | 0.0 | 0.0 | 0.00 | 0.00 | 0.00 | 6 | 955.7 | |
| 20260504031259 | 75 | 0.0 | 0.0 | 0.00 | 0.00 | 0.00 | 6 | 955.8 | |
| 20260504031116 | 74 | 0.0 | 0.0 | 0.00 | 0.00 | 0.00 | 6 | 955.7 | |
| 20260504030932 | 74 | 0.0 | 0.0 | 0.00 | 0.00 | 0.00 | 6 | 955.8 | |
| 20260504030748 | 73 | 0.0 | 0.0 | 0.00 | 0.00 | 0.00 | 6 | 955.7 | |
| 20260504030605 | 75 | 0.0 | 0.0 | 0.00 | 0.00 | 0.00 | 6 | 955.7 | |
| 20260504030421 | 75 | 0.0 | 0.0 | 0.00 | 0.00 | 0.00 | 6 | 955.8 | |
| 20260504030237 | 75 | 0.0 | 0.0 | 0.00 | 0.00 | 0.00 | 6 | 955.8 | |
| 20260504030053 | 75 | 0.0 | 0.0 | 0.00 | 0.00 | 0.00 | 6 | 955.7 | |
| 20260504025909 | 75 | 0.0 | 0.0 | 0.00 | 0.00 | 0.00 | 6 | 955.7 | |
| 20260504025725 | 75 | 0.0 | 0.0 | 0.00 | 0.00 | 0.00 | 6 | 955.7 | |
| 20260504025542 | 74 | 0.0 | 0.0 | 0.00 | 0.00 | 0.00 | 6 | 955.8 | |
| 20260504025358 | 75 | 0.0 | 0.0 | 0.00 | 0.00 | 0.00 | 6 | 955.8 | |
| 20260504025214 | 74 | 0.0 | 0.0 | 0.00 | 0.00 | 0.00 | 6 | 955.8 | |
| 20260504025031 | 75 | 0.0 | 0.0 | 0.00 | 0.00 | 0.00 | 6 | 955.7 | |
| 20260504024847 | 75 | 0.0 | 0.0 | 0.00 | 0.00 | 0.00 | 6 | 955.8 | |
| 20260504024704 | 76 | 0.0 | 0.0 | 0.00 | 0.00 | 0.00 | 6 | 955.8 | |
| 20260504024520 | 75 | 0.0 | 0.0 | 0.00 | 0.00 | 0.00 | 5 | 955.8 | |
| 20260504024336 | 76 | 0.0 | 0.0 | 0.00 | 0.00 | 0.00 | 6 | 955.7 | |
| 20260504024152 | 75 | 0.0 | 0.0 | 0.00 | 0.00 | 0.00 | 6 | 955.7 | |
| 20260504024009 | 76 | 0.0 | 0.0 | 0.00 | 0.00 | 0.00 | 5 | 955.8 | |
| 20260504023825 | 77 | 0.0 | 0.0 | 0.00 | 0.00 | 0.00 | 5 | 955.7 | |
| 20260504023641 | 76 | 0.0 | 0.0 | 0.00 | 0.00 | 0.00 | 5 | 955.8 | |
| 20260504023458 | 76 | 0.0 | 0.0 | 0.00 | 0.00 | 0.00 | 5 | 955.8 | |
| 20260504023314 | 76 | 0.0 | 0.0 | 0.00 | 0.00 | 0.00 | 5 | 955.8 | |
| 20260504023130 | 76 | 0.0 | 0.0 | 0.00 | 0.00 | 0.00 | 5 | 955.7 | |
| 20260504022947 | 76 | 0.0 | 0.0 | 0.00 | 0.00 | 0.00 | 6 | 955.8 | |
| 20260504022803 | 76 | 0.0 | 0.0 | 0.00 | 0.00 | 0.00 | 6 | 955.8 | |
| 20260504022619 | 76 | 0.0 | 0.0 | 0.00 | 0.00 | 0.00 | 6 | 955.8 | |
| 20260504022435 | 76 | 0.0 | 0.0 | 0.00 | 0.00 | 0.00 | 6 | 955.8 | |
| 20260504022251 | 76 | 0.0 | 0.0 | 0.00 | 0.00 | 0.00 | 6 | 955.7 | |
| 20260504022107 | 75 | 0.0 | 0.0 | 0.00 | 0.00 | 0.00 | 6 | 955.8 | |
| 20260504021923 | 75 | 0.0 | 0.0 | 0.00 | 0.00 | 0.00 | 6 | 955.8 | |
| 20260504021739 | 75 | 0.0 | 0.0 | 0.00 | 0.00 | 0.00 | 6 | 955.8 | |
| 20260504021556 | 75 | 0.0 | 0.0 | 0.00 | 0.00 | 0.00 | 6 | 955.9 | |
| 20260504021412 | 76 | 0.0 | 0.0 | 0.00 | 0.00 | 0.00 | 6 | 955.8 | |
| 20260504021228 | 76 | 0.0 | 0.0 | 0.00 | 0.00 | 0.00 | 6 | 955.8 | |
| 20260504021044 | 76 | 0.0 | 0.0 | 0.00 | 0.00 | 0.00 | 5 | 955.8 | |
| 20260504020901 | 76 | 0.0 | 0.0 | 0.00 | 0.00 | 0.00 | 5 | 955.8 | |
| 20260504020717 | 76 | 0.0 | 0.0 | 0.00 | 0.00 | 0.00 | 5 | 955.8 | |
| 20260504020533 | 76 | 0.0 | 0.0 | 0.00 | 0.00 | 0.00 | 5 | 955.8 | |
| 20260504020350 | 76 | 0.0 | 0.0 | 0.00 | 0.00 | 0.00 | 5 | 955.8 | |
| 20260504020206 | 76 | 0.0 | 0.0 | 0.00 | 0.00 | 0.00 | 5 | 955.8 | |
| 20260504020022 | 76 | 0.0 | 0.0 | 0.00 | 0.00 | 0.00 | 5 | 955.8 | |
| 20260504015838 | 77 | 0.0 | 0.0 | 0.00 | 0.00 | 0.00 | 5 | 955.8 | |
| 20260504015655 | 76 | 0.0 | 0.0 | 0.00 | 0.00 | 0.00 | 5 | 955.7 | |
| 20260504015511 | 77 | 0.0 | 0.0 | 0.00 | 0.00 | 0.00 | 5 | 955.8 | |
| 20260504015327 | 77 | 0.0 | 0.0 | 0.00 | 0.00 | 0.00 | 5 | 955.8 | |
| 20260504015143 | 77 | 0.0 | 0.0 | 0.00 | 0.00 | 0.00 | 5 | 955.8 | |
| 20260504014959 | 77 | 0.0 | 0.0 | 0.00 | 0.00 | 0.00 | 5 | 955.7 | |
| 20260504014815 | 77 | 0.0 | 0.0 | 0.00 | 0.00 | 0.00 | 5 | 955.7 | |
| 20260504014631 | 78 | 0.0 | 0.0 | 0.00 | 0.00 | 0.00 | 5 | 955.6 | |
| 20260504014448 | 77 | 0.0 | 0.0 | 0.00 | 0.00 | 0.00 | 5 | 955.7 | |
| 20260504014304 | 77 | 0.0 | 0.0 | 0.00 | 0.00 | 0.00 | 5 | 955.6 | |
| 20260504014120 | 78 | 0.0 | 0.0 | 0.00 | 0.00 | 0.00 | 5 | 955.7 | |
| 20260504013936 | 77 | 0.0 | 0.0 | 0.00 | 0.00 | 0.00 | 5 | 955.6 | |
| 20260504013753 | 77 | 0.0 | 0.0 | 0.00 | 0.00 | 0.00 | 5 | 955.6 | |
| 20260504013609 | 77 | 0.0 | 0.0 | 0.00 | 0.00 | 0.00 | 5 | 955.7 | |
| 20260504013424 | 76 | 0.0 | 0.0 | 0.00 | 0.00 | 0.00 | 5 | 955.6 | |
| 20260504013240 | 77 | 0.0 | 0.0 | 0.00 | 0.00 | 0.00 | 5 | 955.6 | |
| 20260504013057 | 77 | 0.0 | 0.0 | 0.00 | 0.00 | 0.00 | 5 | 955.6 | |
| 20260504012913 | 77 | 0.0 | 0.0 | 0.00 | 0.00 | 0.00 | 5 | 955.7 | |
| 20260504012729 | 77 | 0.0 | 0.0 | 0.00 | 0.00 | 0.00 | 5 | 955.6 | |
| 20260504012545 | 77 | 0.0 | 0.0 | 0.00 | 0.00 | 0.00 | 5 | 955.6 | |
| 20260504012401 | 77 | 0.0 | 0.0 | 0.00 | 0.00 | 0.00 | 5 | 955.6 | |
| 20260504012217 | 77 | 0.0 | 0.0 | 0.00 | 0.00 | 0.00 | 5 | 955.7 | |
| 20260504012034 | 77 | 0.0 | 0.0 | 0.00 | 0.00 | 0.00 | 5 | 955.7 | |
| 20260504011850 | 77 | 0.0 | 0.0 | 0.00 | 0.00 | 0.00 | 5 | 955.6 | |
| 20260504011706 | 77 | 0.0 | 0.0 | 0.00 | 0.00 | 0.00 | 5 | 955.7 | |
| 20260504011522 | 77 | 0.0 | 0.0 | 0.00 | 0.00 | 0.00 | 5 | 955.7 | |
| 20260504011339 | 77 | 0.0 | 0.0 | 0.00 | 0.00 | 0.00 | 5 | 955.7 | |
| 20260504011155 | 77 | 0.0 | 0.0 | 0.00 | 0.00 | 0.00 | 5 | 955.6 | |
| 20260504011011 | 76 | 0.0 | 0.0 | 0.00 | 0.00 | 0.00 | 5 | 955.6 | |
| 20260504010827 | 77 | 0.0 | 0.0 | 0.00 | 0.00 | 0.00 | 5 | 955.6 | |
| 20260504010643 | 76 | 0.0 | 0.0 | 0.00 | 0.00 | 0.00 | 5 | 955.6 | |
| 20260504010459 | 77 | 0.0 | 0.0 | 0.00 | 0.00 | 0.00 | 5 | 955.6 | |
| 20260504010315 | 77 | 0.0 | 0.0 | 0.00 | 0.00 | 0.00 | 5 | 955.6 | |
| 20260504010131 | 77 | 0.0 | 0.0 | 0.00 | 0.00 | 0.00 | 5 | 955.5 | |
| 20260504005948 | 77 | 0.0 | 0.0 | 0.00 | 0.00 | 0.00 | 5 | 955.6 | |
| 20260504005804 | 77 | 0.0 | 0.0 | 0.00 | 0.00 | 0.00 | 5 | 955.6 | |
| 20260504005620 | 76 | 0.0 | 0.0 | 0.00 | 0.00 | 0.00 | 6 | 955.7 | |
| 20260504005437 | 76 | 0.0 | 0.0 | 0.00 | 0.00 | 0.00 | 6 | 955.7 | |
| 20260504005253 | 76 | 0.0 | 0.0 | 0.00 | 0.00 | 0.00 | 5 | 955.6 | |
| 20260504005109 | 76 | 0.0 | 0.0 | 0.00 | 0.00 | 0.00 | 6 | 955.6 | |
| 20260504004925 | 76 | 0.0 | 0.0 | 0.00 | 0.00 | 0.00 | 6 | 955.7 | |
| 20260504004742 | 76 | 0.0 | 0.0 | 0.00 | 0.00 | 0.00 | 6 | 955.6 | |
| 20260504004558 | 76 | 0.0 | 0.0 | 0.00 | 0.00 | 0.00 | 5 | 955.5 | |
| 20260504004414 | 76 | 0.0 | 0.0 | 0.00 | 0.00 | 0.00 | 6 | 955.5 | |
| 20260504004231 | 76 | 0.0 | 0.0 | 0.00 | 0.00 | 0.00 | 6 | 955.6 | |
| 20260504004047 | 75 | 0.0 | 0.0 | 0.00 | 0.00 | 0.00 | 6 | 955.6 | |
| 20260504003903 | 77 | 0.0 | 0.0 | 0.00 | 0.00 | 0.00 | 5 | 955.6 | |
| 20260504003719 | 76 | 0.0 | 0.0 | 0.00 | 0.00 | 0.00 | 6 | 955.5 | |
| 20260504003536 | 76 | 0.0 | 0.0 | 0.00 | 0.00 | 0.00 | 6 | 955.6 | |
| 20260504003351 | 76 | 0.0 | 0.0 | 0.00 | 0.00 | 0.00 | 6 | 955.6 | |
| 20260504003208 | 77 | 0.0 | 0.0 | 0.00 | 0.00 | 0.00 | 6 | 955.5 | |
| 20260504003024 | 76 | 0.0 | 0.0 | 0.00 | 0.00 | 0.00 | 6 | 955.5 | |
| 20260504002840 | 77 | 0.0 | 0.0 | 0.00 | 0.00 | 0.00 | 6 | 955.5 | |
| 20260504002657 | 76 | 0.0 | 0.0 | 0.00 | 0.00 | 0.00 | 6 | 955.5 | |
| 20260504002513 | 77 | 0.0 | 0.0 | 0.00 | 0.00 | 0.00 | 5 | 955.5 | |
| 20260504002329 | 77 | 0.0 | 0.0 | 0.00 | 0.00 | 0.00 | 5 | 955.5 | |
| 20260504002145 | 77 | 0.0 | 0.0 | 0.00 | 0.00 | 0.00 | 5 | 955.5 | |
| 20260504002001 | 77 | 0.0 | 0.0 | 0.00 | 0.00 | 0.00 | 5 | 955.5 | |
| 20260504001817 | 77 | 0.0 | 0.0 | 0.00 | 0.00 | 0.00 | 5 | 955.5 | |
| 20260504001634 | 77 | 0.0 | 0.0 | 0.00 | 0.00 | 0.00 | 5 | 955.6 | |
| 20260504001450 | 77 | 0.0 | 0.0 | 0.00 | 0.00 | 0.00 | 5 | 955.5 | |
| 20260504001306 | 77 | 0.0 | 0.0 | 0.00 | 0.00 | 0.00 | 5 | 955.5 | |
| 20260504001123 | 77 | 0.0 | 0.0 | 0.00 | 0.00 | 0.00 | 5 | 955.6 | |
| 20260504000939 | 78 | 0.0 | 0.0 | 0.00 | 0.00 | 0.00 | 5 | 955.5 | |
| 20260504000755 | 78 | 0.0 | 0.0 | 0.00 | 0.00 | 0.00 | 5 | 955.5 | |
| 20260504000611 | 78 | 0.0 | 0.0 | 0.00 | 0.00 | 0.00 | 5 | 955.5 | |
| 20260504000427 | 77 | 0.0 | 0.0 | 0.00 | 0.00 | 0.00 | 5 | 955.5 | |
| 20260504000243 | 78 | 0.0 | 0.0 | 0.00 | 0.00 | 0.00 | 5 | 955.5 | |
| 20260504000059 | 78 | 0.0 | 0.0 | 0.00 | 0.00 | 0.00 | 5 | 955.5 | |
| 20260503235916 | 79 | 0.0 | 0.0 | 0.00 | 0.00 | 0.00 | 5 | 955.5 | |
| 20260503235732 | 79 | 0.0 | 0.0 | 0.00 | 0.00 | 0.00 | 5 | 955.5 | |
| 20260503235548 | 79 | 0.0 | 0.0 | 0.00 | 0.00 | 0.00 | 5 | 955.5 | |
| 20260503235404 | 78 | 0.0 | 0.0 | 0.00 | 0.00 | 0.00 | 5 | 955.5 | |
| 20260503235220 | 78 | 0.0 | 0.0 | 0.00 | 0.00 | 0.00 | 5 | 955.5 | |
| 20260503235037 | 78 | 0.0 | 0.0 | 0.00 | 0.00 | 0.00 | 5 | 955.4 | |
| 20260503234853 | 78 | 0.0 | 0.0 | 0.00 | 0.00 | 0.00 | 5 | 955.4 | |
| 20260503234709 | 78 | 0.0 | 0.0 | 0.00 | 0.00 | 0.00 | 5 | 955.4 | |
| 20260503234525 | 79 | 0.0 | 0.0 | 0.00 | 0.00 | 0.00 | 5 | 955.4 | |
| 20260503234341 | 79 | 0.0 | 0.0 | 0.00 | 0.00 | 0.00 | 5 | 955.4 | |
| 20260503234158 | 80 | 0.0 | 0.0 | 0.00 | 0.00 | 0.00 | 5 | 955.4 | |
| 20260503234014 | 80 | 0.0 | 0.0 | 0.00 | 0.00 | 0.00 | 5 | 955.3 | |
| 20260503233830 | 80 | 0.0 | 0.0 | 0.00 | 0.00 | 0.00 | 5 | 955.3 | |
| 20260503233646 | 79 | 0.0 | 0.0 | 0.00 | 0.00 | 0.00 | 5 | 955.2 | |
| 20260503233502 | 79 | 0.0 | 0.0 | 0.00 | 0.00 | 0.00 | 5 | 955.2 | |
| 20260503233318 | 79 | 0.0 | 0.0 | 0.00 | 0.00 | 0.00 | 5 | 955.2 | |
| 20260503233135 | 79 | 0.0 | 0.0 | 0.00 | 0.00 | 0.00 | 5 | 955.2 | |
| 20260503232951 | 79 | 0.0 | 0.0 | 0.00 | 0.00 | 0.00 | 5 | 955.1 | |
| 20260503232807 | 80 | 0.0 | 0.0 | 0.00 | 0.00 | 0.00 | 5 | 955.1 | |
| 20260503232623 | 79 | 0.0 | 0.0 | 0.00 | 0.00 | 0.00 | 5 | 955.1 | |
| 20260503232440 | 79 | 0.0 | 0.0 | 0.00 | 0.00 | 0.00 | 5 | 955.1 | |
| 20260503232256 | 79 | 0.0 | 0.0 | 0.00 | 0.00 | 0.00 | 5 | 955.2 | |
| 20260503232112 | 79 | 0.0 | 0.0 | 0.00 | 0.00 | 0.00 | 5 | 955.1 | |
| 20260503231928 | 79 | 0.0 | 0.0 | 0.00 | 0.00 | 0.00 | 5 | 955.1 | |
| 20260503231744 | 80 | 0.0 | 0.0 | 0.00 | 0.00 | 0.00 | 5 | 955.0 | |
| 20260503231600 | 79 | 0.0 | 0.0 | 0.00 | 0.00 | 0.00 | 5 | 955.0 | |
| 20260503231417 | 79 | 0.0 | 0.0 | 0.00 | 0.00 | 0.00 | 5 | 954.9 | |
| 20260503231233 | 79 | 0.0 | 0.0 | 0.00 | 0.00 | 0.00 | 5 | 954.9 | |
| 20260503231049 | 79 | 0.0 | 0.0 | 0.00 | 0.00 | 0.00 | 5 | 954.9 | |
| 20260503230906 | 80 | 0.0 | 0.0 | 0.00 | 0.00 | 0.00 | 5 | 954.8 | |
| 20260503230722 | 80 | 0.0 | 0.0 | 0.00 | 0.00 | 0.00 | 5 | 954.8 | |
| 20260503230538 | 80 | 0.0 | 0.0 | 0.00 | 0.00 | 0.00 | 5 | 954.8 | |
| 20260503230354 | 80 | 0.0 | 0.0 | 0.00 | 0.00 | 0.00 | 5 | 954.8 | |
| 20260503230210 | 80 | 0.0 | 0.0 | 0.00 | 0.00 | 0.00 | 5 | 954.7 | |
| 20260503230027 | 80 | 0.0 | 0.0 | 0.00 | 0.00 | 0.00 | 5 | 954.6 | |
| 20260503225843 | 80 | 0.0 | 0.0 | 0.00 | 0.00 | 0.00 | 5 | 954.7 | |
| 20260503225659 | 80 | 0.0 | 0.0 | 0.00 | 0.00 | 0.00 | 5 | 954.7 | |
| 20260503225515 | 80 | 0.0 | 0.0 | 0.00 | 0.00 | 0.00 | 5 | 954.6 | |
| 20260503225331 | 80 | 0.0 | 0.0 | 0.00 | 0.00 | 0.00 | 5 | 954.5 | |
| 20260503225147 | 81 | 0.0 | 0.0 | 0.00 | 0.00 | 0.00 | 5 | 954.5 | |
| 20260503225003 | 80 | 0.0 | 0.0 | 0.00 | 0.00 | 0.00 | 5 | 954.4 | |
| 20260503224820 | 80 | 0.0 | 0.0 | 0.00 | 0.00 | 0.00 | 5 | 954.4 | |
| 20260503224636 | 80 | 0.0 | 0.0 | 0.00 | 0.00 | 0.00 | 5 | 954.4 | |
| 20260503224451 | 81 | 0.0 | 0.0 | 0.00 | 0.00 | 0.00 | 5 | 954.3 | |
| 20260503224307 | 81 | 0.0 | 0.0 | 0.00 | 0.00 | 0.00 | 5 | 954.3 | |
| 20260503224123 | 80 | 0.0 | 0.0 | 0.00 | 0.00 | 0.00 | 5 | 954.3 | |
| 20260503223939 | 81 | 0.0 | 0.0 | 0.00 | 0.00 | 0.00 | 5 | 954.2 | |
| 20260503223756 | 81 | 0.0 | 0.0 | 0.00 | 0.00 | 0.00 | 5 | 954.3 | |
| 20260503223612 | 81 | 0.0 | 0.0 | 0.00 | 0.00 | 0.00 | 5 | 954.2 | |
| 20260503223428 | 81 | 0.0 | 0.0 | 0.00 | 0.00 | 0.00 | 5 | 954.1 | |
| 20260503223245 | 81 | 0.0 | 0.0 | 0.00 | 0.00 | 0.00 | 5 | 954.1 | |
| 20260503223101 | 81 | 0.0 | 0.0 | 0.00 | 0.00 | 0.00 | 5 | 954.1 | |
| 20260503222917 | 81 | 0.0 | 0.0 | 0.00 | 0.00 | 0.00 | 5 | 954.0 | |
| 20260503222734 | 82 | 0.0 | 0.0 | 0.00 | 0.00 | 0.00 | 5 | 954.0 | |
| 20260503222550 | 82 | 0.0 | 0.0 | 0.00 | 0.00 | 0.00 | 5 | 954.1 | |
| 20260503222406 | 82 | 0.0 | 0.0 | 0.00 | 0.00 | 0.00 | 5 | 954.0 | |
| 20260503222223 | 82 | 0.0 | 0.0 | 0.00 | 0.00 | 0.00 | 5 | 953.9 | |
| 20260503222039 | 82 | 0.0 | 0.0 | 0.00 | 0.00 | 0.00 | 5 | 953.9 | |
| 20260503221855 | 83 | 0.0 | 0.0 | 0.00 | 0.00 | 0.00 | 5 | 953.9 | |
| 20260503221711 | 82 | 0.0 | 0.0 | 0.00 | 0.00 | 0.00 | 5 | 953.8 | |
| 20260503221527 | 82 | 0.0 | 0.0 | 0.00 | 0.00 | 0.00 | 5 | 953.9 | |
| 20260503221343 | 82 | 0.0 | 0.0 | 0.00 | 0.00 | 0.00 | 4 | 953.9 | |
| 20260503221200 | 83 | 0.0 | 0.0 | 0.00 | 0.00 | 0.00 | 4 | 953.8 | |
| 20260503221016 | 82 | 0.0 | 0.0 | 0.00 | 0.00 | 0.00 | 5 | 953.9 | |
| 20260503220832 | 82 | 0.0 | 0.0 | 0.00 | 0.00 | 0.00 | 4 | 953.9 | |
| 20260503220649 | 82 | 0.0 | 0.0 | 0.00 | 0.00 | 0.00 | 4 | 953.9 | |
| 20260503220505 | 83 | 0.0 | 0.0 | 0.00 | 0.00 | 0.00 | 4 | 953.9 | |
| 20260503220321 | 82 | 0.0 | 0.0 | 0.00 | 0.00 | 0.00 | 4 | 953.9 | |
| 20260503220138 | 83 | 0.0 | 0.0 | 0.00 | 0.00 | 0.00 | 4 | 953.9 | |
| 20260503215954 | 83 | 0.0 | 0.0 | 0.00 | 0.00 | 0.00 | 4 | 953.8 | |
| 20260503215810 | 83 | 0.0 | 0.0 | 0.00 | 0.00 | 0.00 | 4 | 953.9 | |
| 20260503215626 | 83 | 0.0 | 0.0 | 0.00 | 0.00 | 0.00 | 4 | 953.8 | |
| 20260503215443 | 83 | 0.0 | 0.0 | 0.00 | 0.00 | 0.00 | 4 | 953.8 | |
| 20260503215259 | 83 | 0.0 | 0.0 | 0.00 | 0.00 | 0.00 | 4 | 953.7 | |
| 20260503215115 | 83 | 0.0 | 0.0 | 0.00 | 0.00 | 0.00 | 4 | 953.8 | |
| 20260503214931 | 83 | 0.0 | 0.0 | 0.00 | 0.00 | 0.00 | 4 | 953.8 | |
| 20260503214747 | 83 | 0.0 | 0.0 | 0.00 | 0.00 | 0.00 | 4 | 953.8 | |
| 20260503214604 | 83 | 0.0 | 0.0 | 0.00 | 0.00 | 0.00 | 4 | 953.8 | |
| 20260503214420 | 83 | 0.0 | 0.0 | 0.00 | 0.00 | 0.00 | 4 | 953.8 | |
| 20260503214236 | 84 | 0.0 | 0.0 | 0.00 | 0.00 | 0.00 | 4 | 953.8 | |
| 20260503214052 | 83 | 0.0 | 0.0 | 0.00 | 0.00 | 0.00 | 4 | 953.7 | |
| 20260503213909 | 84 | 0.0 | 0.0 | 0.00 | 0.00 | 0.00 | 4 | 953.7 | |
| 20260503213725 | 83 | 0.0 | 0.0 | 0.00 | 0.00 | 0.00 | 4 | 953.7 | |
| 20260503213541 | 83 | 0.0 | 0.0 | 0.00 | 0.00 | 0.00 | 4 | 953.7 | |
| 20260503213358 | 84 | 0.0 | 0.0 | 0.00 | 0.00 | 0.00 | 4 | 953.7 | |
| 20260503213214 | 83 | 0.0 | 0.0 | 0.00 | 0.00 | 0.00 | 4 | 953.6 | |
| 20260503213031 | 84 | 0.0 | 0.0 | 0.00 | 0.00 | 0.00 | 4 | 953.6 | |
| 20260503212847 | 84 | 0.0 | 0.0 | 0.00 | 0.00 | 0.00 | 4 | 953.6 | |
| 20260503212703 | 84 | 0.0 | 0.0 | 0.00 | 0.00 | 0.00 | 4 | 953.6 | |
| 20260503212519 | 84 | 0.0 | 0.0 | 0.00 | 0.00 | 0.00 | 4 | 953.6 | |
| 20260503212335 | 85 | 0.0 | 0.0 | 0.00 | 0.00 | 0.00 | 4 | 953.6 | |
| 20260503212152 | 85 | 0.0 | 0.0 | 0.00 | 0.00 | 0.00 | 4 | 953.6 | |
| 20260503212008 | 85 | 0.0 | 0.0 | 0.00 | 0.00 | 0.00 | 4 | 953.6 | |
| 20260503211824 | 85 | 0.0 | 0.0 | 0.00 | 0.00 | 0.00 | 4 | 953.7 | |
| 20260503211640 | 85 | 0.0 | 0.0 | 0.00 | 0.00 | 0.00 | 4 | 953.5 | |
| 20260503211457 | 85 | 0.0 | 0.0 | 0.00 | 0.00 | 0.00 | 4 | 953.5 | |
| 20260503211313 | 85 | 0.0 | 0.0 | 0.00 | 0.00 | 0.00 | 4 | 953.5 | |
| 20260503211129 | 85 | 0.0 | 0.0 | 0.00 | 0.00 | 0.00 | 4 | 953.5 | |
| 20260503210945 | 85 | 0.0 | 0.0 | 0.00 | 0.00 | 0.00 | 4 | 953.4 | |
| 20260503210801 | 85 | 0.0 | 0.0 | 0.00 | 0.00 | 0.00 | 4 | 953.4 | |
| 20260503210618 | 85 | 0.0 | 0.0 | 0.00 | 0.00 | 0.00 | 4 | 953.5 | |
| 20260503210434 | 85 | 0.0 | 0.0 | 0.00 | 0.00 | 0.00 | 4 | 953.5 | |
| 20260503210251 | 85 | 0.0 | 0.0 | 0.00 | 0.00 | 0.00 | 4 | 953.5 | |
| 20260503210107 | 85 | 0.0 | 0.0 | 0.00 | 0.00 | 0.00 | 4 | 953.4 | |
| 20260503205923 | 85 | 0.0 | 0.0 | 0.00 | 0.00 | 0.00 | 4 | 953.3 | |
| 20260503205739 | 86 | 0.0 | 0.0 | 0.00 | 0.00 | 0.00 | 4 | 953.4 | |
| 20260503205556 | 85 | 0.0 | 0.0 | 0.00 | 0.00 | 0.00 | 4 | 953.4 | |
| 20260503205412 | 86 | 0.0 | 0.0 | 0.00 | 0.00 | 0.00 | 4 | 953.4 | |
| 20260503205228 | 86 | 0.0 | 0.0 | 0.00 | 0.00 | 0.00 | 4 | 953.3 | |
| 20260503205045 | 86 | 0.0 | 0.0 | 0.00 | 0.00 | 0.00 | 3 | 953.4 | |
| 20260503204901 | 86 | 0.0 | 0.0 | 0.00 | 0.00 | 0.00 | 4 | 953.4 | |
| 20260503204717 | 86 | 0.0 | 0.0 | 0.00 | 0.00 | 0.00 | 4 | 953.3 | |
| 20260503204533 | 85 | 0.0 | 0.0 | 0.00 | 0.00 | 0.00 | 4 | 953.4 | |
| 20260503204350 | 86 | 0.0 | 0.0 | 0.00 | 0.00 | 0.00 | 4 | 953.3 | |
| 20260503204206 | 86 | 0.0 | 0.0 | 0.00 | 0.00 | 0.00 | 3 | 953.3 | |
| 20260503204022 | 86 | 0.0 | 0.0 | 0.00 | 0.00 | 0.00 | 3 | 953.3 | |
| 20260503203838 | 86 | 0.0 | 0.0 | 0.00 | 0.00 | 0.00 | 3 | 953.3 | |
| 20260503203654 | 86 | 0.0 | 0.0 | 0.00 | 0.00 | 0.00 | 3 | 953.3 | |
| 20260503203510 | 86 | 0.0 | 0.0 | 0.00 | 0.00 | 0.00 | 3 | 953.3 | |
| 20260503203326 | 86 | 0.0 | 0.0 | 0.00 | 0.00 | 0.00 | 3 | 953.3 | |
| 20260503203142 | 86 | 0.0 | 0.0 | 0.00 | 0.00 | 0.00 | 3 | 953.3 | |
| 20260503202958 | 86 | 0.0 | 0.0 | 0.00 | 0.00 | 0.00 | 3 | 953.3 | |
| 20260503202814 | 86 | 0.0 | 0.0 | 0.00 | 0.00 | 0.00 | 3 | 953.3 | |
| 20260503202630 | 86 | 0.0 | 0.0 | 0.00 | 0.00 | 0.00 | 3 | 953.3 | |
| 20260503202446 | 86 | 0.0 | 0.0 | 0.00 | 0.00 | 0.00 | 3 | 953.3 | |
| 20260503202304 | 86 | 0.0 | 0.0 | 0.00 | 0.00 | 0.00 | 3 | 953.3 | |
| 20260503202119 | 86 | 0.0 | 0.0 | 0.00 | 0.00 | 0.00 | 3 | 953.3 | |
| 20260503201935 | 86 | 0.0 | 0.0 | 0.00 | 0.00 | 0.00 | 3 | 953.3 | |
| 20260503201751 | 86 | 0.0 | 0.0 | 0.00 | 0.00 | 0.00 | 3 | 953.3 | |
| 20260503201608 | 87 | 0.0 | 0.0 | 0.00 | 0.00 | 0.00 | 3 | 953.4 | |
| 20260503201424 | 87 | 0.0 | 0.0 | 0.00 | 0.00 | 0.00 | 3 | 953.3 | |
| 20260503201240 | 87 | 0.0 | 0.0 | 0.00 | 0.00 | 0.00 | 3 | 953.4 | |
| 20260503201056 | 87 | 0.0 | 0.0 | 0.00 | 0.00 | 0.00 | 3 | 953.4 | |
| 20260503200913 | 87 | 0.0 | 0.0 | 0.00 | 0.00 | 0.00 | 3 | 953.3 | |
| 20260503200729 | 87 | 0.0 | 0.0 | 0.00 | 0.00 | 0.00 | 3 | 953.4 | |
| 20260503200545 | 87 | 0.0 | 0.0 | 0.00 | 0.00 | 0.00 | 3 | 953.4 | |
| 20260503200402 | 88 | 0.0 | 0.0 | 0.00 | 0.00 | 0.00 | 3 | 953.4 | |
| 20260503200218 | 88 | 0.0 | 0.0 | 0.00 | 0.00 | 0.00 | 3 | 953.4 | |
| 20260503200034 | 88 | 0.0 | 0.0 | 0.00 | 0.00 | 0.00 | 3 | 953.3 | |
| 20260503195850 | 88 | 0.0 | 0.0 | 0.00 | 0.00 | 0.00 | 3 | 953.4 | |
| 20260503195707 | 88 | 0.0 | 0.0 | 0.00 | 0.00 | 0.00 | 3 | 953.4 | |
| 20260503195523 | 88 | 0.0 | 0.0 | 0.00 | 0.00 | 0.00 | 3 | 953.3 | |
| 20260503195339 | 88 | 0.0 | 0.0 | 0.00 | 0.00 | 0.00 | 3 | 953.3 | |
| 20260503195155 | 88 | 0.0 | 0.0 | 0.00 | 0.00 | 0.00 | 3 | 953.3 | |
| 20260503195011 | 88 | 0.0 | 0.0 | 0.00 | 0.00 | 0.00 | 3 | 953.3 | |
| 20260503194828 | 88 | 0.0 | 0.0 | 0.00 | 0.00 | 0.00 | 3 | 953.3 | |
| 20260503194644 | 88 | 0.0 | 0.0 | 0.00 | 0.00 | 0.00 | 3 | 953.3 | |
| 20260503194500 | 88 | 0.0 | 0.0 | 0.00 | 0.00 | 0.00 | 3 | 953.3 | |
| 20260503194316 | 89 | 0.0 | 0.0 | 0.00 | 0.00 | 0.00 | 3 | 953.3 | |
| 20260503194133 | 89 | 0.0 | 0.0 | 0.00 | 0.00 | 0.00 | 3 | 953.3 | |
| 20260503193949 | 88 | 0.0 | 0.0 | 0.00 | 0.00 | 0.00 | 3 | 953.3 | |
| 20260503193805 | 89 | 0.0 | 0.0 | 0.00 | 0.00 | 0.00 | 3 | 953.3 | |
| 20260503193622 | 88 | 0.0 | 0.0 | 0.00 | 0.00 | 0.00 | 3 | 953.3 | |
| 20260503193437 | 89 | 0.0 | 0.0 | 0.00 | 0.00 | 0.00 | 3 | 953.2 | |
| 20260503193254 | 89 | 0.0 | 0.0 | 0.00 | 0.00 | 0.00 | 3 | 953.3 | |
| 20260503193110 | 89 | 0.0 | 0.0 | 0.00 | 0.00 | 0.00 | 3 | 953.2 | |
| 20260503192926 | 89 | 0.0 | 0.0 | 0.00 | 0.00 | 0.00 | 3 | 953.3 | |
| 20260503192742 | 89 | 0.0 | 0.0 | 0.00 | 0.00 | 0.00 | 3 | 953.2 | |
| 20260503192558 | 89 | 0.0 | 0.0 | 0.00 | 0.00 | 0.00 | 3 | 953.2 | |
| 20260503192414 | 89 | 0.0 | 0.0 | 0.00 | 0.00 | 0.00 | 3 | 953.2 | |
| 20260503192230 | 89 | 0.0 | 0.0 | 0.00 | 0.00 | 0.00 | 3 | 953.1 | |
| 20260503192046 | 89 | 0.0 | 0.0 | 0.00 | 0.00 | 0.00 | 3 | 953.1 | |
| 20260503191902 | 89 | 0.0 | 0.0 | 0.00 | 0.00 | 0.00 | 3 | 953.2 | |
| 20260503191718 | 89 | 0.0 | 0.0 | 0.00 | 0.00 | 0.00 | 3 | 953.2 | |
| 20260503191535 | 89 | 0.0 | 0.0 | 0.00 | 0.00 | 0.00 | 3 | 953.2 | |
| 20260503191351 | 89 | 0.0 | 0.0 | 0.00 | 0.00 | 0.00 | 3 | 953.2 | |
| 20260503191207 | 89 | 0.0 | 0.0 | 0.00 | 0.00 | 0.00 | 3 | 953.2 | |
| 20260503191024 | 89 | 0.0 | 0.0 | 0.00 | 0.00 | 0.00 | 3 | 953.2 | |
| 20260503190840 | 89 | 0.0 | 0.0 | 0.00 | 0.00 | 0.00 | 3 | 953.2 | |
| 20260503190656 | 89 | 0.0 | 0.0 | 0.00 | 0.00 | 0.00 | 3 | 953.3 | |
| 20260503190512 | 89 | 0.0 | 0.0 | 0.00 | 0.00 | 0.00 | 3 | 953.2 | |
| 20260503190329 | 89 | 0.0 | 0.0 | 0.00 | 0.00 | 0.00 | 3 | 953.2 | |
| 20260503190145 | 89 | 0.0 | 0.0 | 0.00 | 0.00 | 0.00 | 3 | 953.3 | |
| 20260503190002 | 89 | 0.0 | 0.0 | 0.00 | 0.00 | 0.00 | 3 | 953.2 | |
| 20260503185818 | 89 | 0.0 | 0.0 | 0.00 | 0.00 | 0.00 | 3 | 953.2 | |
| 20260503185634 | 89 | 0.0 | 0.0 | 0.00 | 0.00 | 0.00 | 3 | 953.3 | |
| 20260503185450 | 89 | 0.0 | 0.0 | 0.00 | 0.00 | 0.00 | 3 | 953.3 | |
| 20260503185307 | 89 | 0.0 | 0.0 | 0.00 | 0.00 | 0.00 | 3 | 953.2 | |
| 20260503185123 | 89 | 0.0 | 0.0 | 0.00 | 0.00 | 0.00 | 3 | 953.2 | |
| 20260503184939 | 89 | 0.0 | 0.0 | 0.00 | 0.00 | 0.00 | 3 | 953.2 | |
| 20260503184756 | 89 | 0.0 | 0.0 | 0.00 | 0.00 | 0.00 | 3 | 953.3 | |
| 20260503184612 | 88 | 0.0 | 0.0 | 0.00 | 0.00 | 0.00 | 3 | 953.2 | |
| 20260503184428 | 88 | 0.0 | 0.0 | 0.00 | 0.00 | 0.00 | 3 | 953.2 | |
| 20260503184244 | 88 | 0.0 | 0.0 | 0.00 | 0.00 | 0.00 | 3 | 953.2 | |
| 20260503184101 | 88 | 0.0 | 0.0 | 0.00 | 0.00 | 0.00 | 3 | 953.3 | |
| 20260503183917 | 88 | 0.0 | 0.0 | 0.00 | 0.00 | 0.00 | 3 | 953.2 | |
| 20260503183733 | 88 | 0.0 | 0.0 | 0.00 | 0.00 | 0.00 | 3 | 953.2 | |
| 20260503183549 | 88 | 0.0 | 0.0 | 0.00 | 0.00 | 0.00 | 3 | 953.2 | |
| 20260503183405 | 88 | 0.0 | 0.0 | 0.00 | 0.00 | 0.00 | 3 | 953.2 | |
| 20260503183222 | 89 | 0.0 | 0.0 | 0.00 | 0.00 | 0.00 | 3 | 953.2 | |
| 20260503183038 | 88 | 0.0 | 0.0 | 0.00 | 0.00 | 0.00 | 3 | 953.2 | |
| 20260503182854 | 88 | 0.0 | 0.0 | 0.00 | 0.00 | 0.00 | 3 | 953.2 | |
| 20260503182710 | 88 | 0.0 | 0.0 | 0.00 | 0.00 | 0.00 | 3 | 953.2 | |
| 20260503182526 | 88 | 0.0 | 0.0 | 0.00 | 0.00 | 0.00 | 3 | 953.2 | |
| 20260503182342 | 89 | 0.0 | 0.0 | 0.00 | 0.00 | 0.00 | 3 | 953.2 | |
| 20260503182158 | 89 | 0.0 | 0.0 | 0.00 | 0.00 | 0.00 | 3 | 953.3 | |
| 20260503182015 | 89 | 0.0 | 0.0 | 0.00 | 0.00 | 0.00 | 3 | 953.2 | |
| 20260503181831 | 89 | 0.0 | 0.0 | 0.00 | 0.00 | 0.00 | 3 | 953.2 | |
| 20260503181647 | 89 | 0.0 | 0.0 | 0.00 | 0.00 | 0.00 | 3 | 953.2 | |
| 20260503181505 | 88 | 0.0 | 0.0 | 0.00 | 0.00 | 0.00 | 3 | 953.2 | |
| 20260503181320 | 88 | 0.0 | 0.0 | 0.00 | 0.00 | 0.00 | 3 | 953.3 | |
| 20260503181136 | 88 | 0.0 | 0.0 | 0.00 | 0.00 | 0.00 | 3 | 953.2 | |
| 20260503180952 | 88 | 0.0 | 0.0 | 0.00 | 0.00 | 0.00 | 3 | 953.3 | |
| 20260503180809 | 89 | 0.0 | 0.0 | 0.00 | 0.00 | 0.00 | 3 | 953.3 | |
| 20260503180625 | 89 | 0.0 | 0.0 | 0.00 | 0.00 | 0.00 | 3 | 953.2 | |
| 20260503180441 | 88 | 0.0 | 0.0 | 0.00 | 0.00 | 0.00 | 3 | 953.4 | |
| 20260503180257 | 89 | 0.0 | 0.0 | 0.00 | 0.00 | 0.00 | 3 | 953.3 | |
| 20260503180113 | 89 | 0.0 | 0.0 | 0.00 | 0.00 | 0.00 | 3 | 953.4 | |
| 20260503175930 | 89 | 0.0 | 0.0 | 0.00 | 0.00 | 0.00 | 3 | 953.4 | |
| 20260503175746 | 88 | 0.0 | 0.0 | 0.00 | 0.00 | 0.00 | 3 | 953.4 | |
| 20260503175602 | 88 | 0.0 | 0.0 | 0.00 | 0.00 | 0.00 | 3 | 953.4 | |
| 20260503175418 | 89 | 0.0 | 0.0 | 0.00 | 0.00 | 0.00 | 3 | 953.5 | |
| 20260503175234 | 88 | 0.0 | 0.0 | 0.00 | 0.00 | 0.00 | 3 | 953.5 | |
| 20260503175050 | 87 | 0.0 | 0.0 | 0.00 | 0.00 | 0.00 | 3 | 953.5 | |
| 20260503174906 | 87 | 0.0 | 0.0 | 0.00 | 0.00 | 0.00 | 3 | 953.5 | |
| 20260503174722 | 88 | 0.0 | 0.0 | 0.00 | 0.00 | 0.00 | 3 | 953.5 |